H1 CPF 2 NER 2021 8 2 9 214 01 glonass133 H2 1403201 9133 40001 2021 8 2 0 0 0 2021 8 5 23 45 0 900 1 1 0 0 0 1 H9 10 0 59428 0.00000 0 3950906.780 -13382049.670 -21351888.462 10 0 59428 900.00000 0 5200659.837 -10982853.089 -22428786.862 10 0 59428 1800.00000 0 6686157.021 -8597141.407 -23070179.264 10 0 59428 2700.00000 0 8378885.087 -6290202.171 -23263753.004 10 0 59428 3600.00000 0 10239004.295 -4121606.785 -23005883.612 10 0 59428 4500.00000 0 12216852.935 -2142923.488 -22301694.484 10 0 59428 5400.00000 0 14254876.034 -395778.821 -21164948.833 10 0 59428 6300.00000 0 16289898.388 1089653.434 -19617776.589 10 0 59428 7200.00000 0 18255647.679 2295674.782 -17690241.856 10 0 59428 8100.00000 0 20085423.245 3217555.341 -15419759.304 10 0 59428 9000.00000 0 21714800.036 3863479.183 -12850370.537 10 0 59428 9900.00000 0 23084255.654 4253945.504 -10031894.056 10 0 59428 10800.00000 0 24141611.580 4420652.012 -7018964.704 10 0 59428 11700.00000 0 24844187.120 4404908.359 -3869980.597 10 0 59428 12600.00000 0 25160576.371 4255646.925 -645977.410 10 0 59428 13500.00000 0 25071973.999 4027115.054 2590548.668 10 0 59428 14400.00000 0 24572994.232 3776346.211 5776846.977 10 0 59428 15300.00000 0 23671948.409 3560516.743 8851124.251 10 0 59428 16200.00000 0 22390568.937 3434299.867 11753739.111 10 0 59428 17100.00000 0 20763190.457 3447328.685 14428356.225 10 0 59428 18000.00000 0 18835421.657 3641875.580 16823037.808 10 0 59428 18900.00000 0 16662362.343 4050846.374 18891251.460 10 0 59428 19800.00000 0 14306439.267 4696174.612 20592774.903 10 0 59428 20700.00000 0 11834950.183 5587684.643 21894480.047 10 0 59428 21600.00000 0 9317417.696 6722472.706 22770981.225 10 0 59428 22500.00000 0 6822862.362 8084833.635 23205134.854 10 0 59428 23400.00000 0 4417108.110 9646738.006 23188380.574 10 0 59428 24300.00000 0 2160231.639 11368841.545 22720916.790 10 0 59428 25200.00000 0 104261.669 13201986.268 21811706.623 10 0 59428 26100.00000 0 -1708776.300 15089131.990 20478313.387 10 0 59428 27000.00000 0 -3248388.379 16967638.549 18746567.962 10 0 59428 27900.00000 0 -4496650.231 18771804.039 16650073.639 10 0 59428 28800.00000 0 -5448711.341 20435552.996 14229557.350 10 0 59428 29700.00000 0 -6112744.919 21895161.768 11532079.278 10 0 59428 30600.00000 0 -6509346.130 23091906.241 8610115.909 10 0 59428 31500.00000 0 -6670404.764 23974519.872 5520534.448 10 0 59428 32400.00000 0 -6637500.938 24501357.752 2323478.933 10 0 59428 33300.00000 0 -6459892.901 24642174.677 -918809.572 10 0 59428 34200.00000 0 -6192183.427 24379441.492 -4143214.656 10 0 59428 35100.00000 0 -5891765.184 23709143.649 -7286983.193 10 0 59428 36000.00000 0 -5616154.788 22641028.054 -10288955.651 10 0 59428 36900.00000 0 -5420329.896 21198287.832 -13090762.959 10 0 59428 37800.00000 0 -5354183.336 19416698.596 -15637965.840 10 0 59428 38700.00000 0 -5460202.912 17343243.047 -17881113.974 10 0 59428 39600.00000 0 -5771475.596 15034282.280 -19776704.203 10 0 59428 40500.00000 0 -6310100.634 12553351.037 -21288019.479 10 0 59428 41400.00000 0 -7086078.504 9968669.514 -22385832.978 10 0 59428 42300.00000 0 -8096722.299 7350475.857 -23048964.528 10 0 59428 43200.00000 0 -9326616.011 4768290.323 -23264679.779 10 0 59428 44100.00000 0 -10748121.223 2288224.371 -23028925.458 10 0 59428 45000.00000 0 -12322410.808 -29554.336 -22346397.257 10 0 59428 45900.00000 0 -14000986.389 -2133097.069 -21230439.903 10 0 59428 46800.00000 0 -15727616.339 -3980596.425 -19702781.986 10 0 59428 47700.00000 0 -17440613.709 -5541877.850 -17793111.002 10 0 59428 48600.00000 0 -19075359.463 -6799400.157 -15538496.867 10 0 59428 49500.00000 0 -20566966.308 -7748725.267 -12982674.833 10 0 59428 50400.00000 0 -21852972.401 -8398439.210 -10175201.272 10 0 59428 51300.00000 0 -22875952.958 -8769529.224 -7170498.162 10 0 59428 52200.00000 0 -23585941.033 -8894244.237 -4026804.106 10 0 59428 53100.00000 0 -23942556.371 -8814487.373 -805051.744 10 0 59428 54000.00000 0 -23916753.311 -8579808.696 2432307.247 10 0 59428 54900.00000 0 -23492114.303 -8245082.967 5622507.253 10 0 59428 55800.00000 0 -22665634.408 -7867970.422 8703680.768 10 0 59428 56700.00000 0 -21447963.221 -7506267.691 11616054.225 10 0 59428 57600.00000 0 -19863093.217 -7215260.633 14303104.580 10 0 59428 58500.00000 0 -17947506.502 -7045190.856 16712654.329 10 0 59428 59400.00000 0 -15748814.497 -7038943.029 18797883.881 10 0 59428 60300.00000 0 -13323946.143 -7230050.917 20518241.760 10 0 59428 61200.00000 0 -10736959.079 -7641106.869 21840234.985 10 0 59428 62100.00000 0 -8056563.889 -8282642.638 22738084.315 10 0 59428 63000.00000 0 -5353463.463 -9152529.890 23194231.535 10 0 59428 63900.00000 0 -2697617.449 -10235926.952 23199688.627 10 0 59428 64800.00000 0 -155544.827 -11505775.653 22754221.653 10 0 59428 65700.00000 0 2212223.649 -12923828.950 21866365.153 10 0 59428 66600.00000 0 4353437.449 -14442167.705 20553266.029 10 0 59428 67500.00000 0 6226067.473 -16005144.210 18840359.109 10 0 59428 68400.00000 0 7799815.721 -17551671.861 16760879.812 10 0 59428 69300.00000 0 9057130.503 -19017765.309 14355222.655 10 0 59428 70200.00000 0 9993685.044 -20339224.474 11670157.474 10 0 59428 71100.00000 0 10618299.878 -21454349.250 8757918.254 10 0 59428 72000.00000 0 10952312.963 -22306569.899 5675182.397 10 0 59428 72900.00000 0 11028424.988 -22846881.440 2481960.623 10 0 59428 73800.00000 0 10889069.791 -23035978.375 -759580.173 10 0 59428 74700.00000 0 10584380.078 -22845998.661 -3986337.151 10 0 59428 75600.00000 0 10169836.054 -22261802.510 -7135509.943 10 0 59428 76500.00000 0 9703698.016 -21281731.416 -10145832.005 10 0 59428 77400.00000 0 9244333.092 -19917815.101 -12958769.728 10 0 59428 78300.00000 0 8847550.602 -18195417.593 -15519665.191 10 0 59428 79200.00000 0 8564059.763 -16152337.503 -17778799.772 10 0 59428 80100.00000 0 8437157.887 -13837400.703 -19692357.784 10 0 59428 81000.00000 0 8500746.985 -11308604.764 -21223271.671 10 0 59428 81900.00000 0 8777762.391 -8630893.105 -22341933.050 10 0 59428 82800.00000 0 9279079.241 -5873652.014 -23026756.635 10 0 59428 83700.00000 0 10002942.337 -3108034.676 -23264587.276 10 0 59428 84600.00000 0 10934942.791 -404223.087 -23050943.348 10 0 59428 85500.00000 0 12048541.909 2171259.123 -22390092.848 10 0 59429 0.00000 0 13306120.009 4558072.571 -21294961.659 10 0 59429 900.00000 0 14660506.278 6704323.283 -19786876.193 10 0 59429 1800.00000 0 16056925.204 8568467.237 -17895146.238 10 0 59429 2700.00000 0 17435279.056 10120780.012 -15656495.459 10 0 59429 3600.00000 0 18732670.832 11344333.635 -13114350.897 10 0 59429 4500.00000 0 19886062.759 12235440.426 -10318004.594 10 0 59429 5400.00000 0 20834959.514 12803547.505 -7321663.099 10 0 59429 6300.00000 0 21524004.180 13070587.533 -4183402.646 10 0 59429 7200.00000 0 21905378.409 13069813.899 -964049.740 10 0 59429 8100.00000 0 21940906.222 12844170.008 2273991.708 10 0 59429 9000.00000 0 21603773.010 12444261.672 5467944.424 10 0 59429 9900.00000 0 20879787.194 11926018.135 8555869.913 10 0 59429 10800.00000 0 19768130.883 11348140.347 11477865.502 10 0 59429 11700.00000 0 18281567.053 10769443.971 14177223.303 10 0 59429 12600.00000 0 16446093.416 10246209.104 16601528.692 10 0 59429 13500.00000 0 14300056.058 9829648.432 18703677.179 10 0 59429 14400.00000 0 11892758.421 9563600.695 20442790.058 10 0 59429 15300.00000 0 9282622.274 9482546.938 21785011.073 10 0 59429 16200.00000 0 6534975.872 9610033.637 22704168.667 10 0 59429 17100.00000 0 3719560.105 9957569.854 23182290.845 10 0 59429 18000.00000 0 907855.317 10524045.801 23209962.366 10 0 59429 18900.00000 0 -1829660.978 11295698.438 22786516.922 10 0 59429 19800.00000 0 -4426212.214 12246626.840 21920059.967 10 0 59429 20700.00000 0 -6821264.889 13339836.927 20627321.000 10 0 59429 21600.00000 0 -8962809.248 14528772.790 18933337.343 10 0 59429 22500.00000 0 -10809283.687 15759271.192 16870974.674 10 0 59429 23400.00000 0 -12331062.633 16971857.556 14480292.888 10 0 59429 24300.00000 0 -13511445.914 18104287.049 11807769.006 10 0 59429 25200.00000 0 -14347108.477 19094223.486 8905391.879 10 0 59429 26100.00000 0 -14847992.013 19881942.514 5829646.369 10 0 59429 27000.00000 0 -15036643.809 20412944.152 2640407.116 10 0 59429 27900.00000 0 -14947031.717 20640363.294 -600235.928 10 0 59429 28800.00000 0 -14622886.427 20527075.222 -3829196.237 10 0 59429 29700.00000 0 -14115642.589 20047406.108 -6983628.897 10 0 59429 30600.00000 0 -13482067.346 19188375.380 -10002162.953 10 0 59429 31500.00000 0 -12781678.115 17950416.852 -12826102.727 10 0 59429 32400.00000 0 -12074060.212 16347547.875 -15400573.915 10 0 59429 33300.00000 0 -11416198.859 14406979.227 -17675591.643 10 0 59429 34200.00000 0 -10859939.023 12168182.260 -19607029.469 10 0 59429 35100.00000 0 -10449680.702 9681452.624 -21157470.832 10 0 59429 36000.00000 0 -10220406.755 7006030.832 -22296927.008 10 0 59429 36900.00000 0 -10196125.934 4207858.333 -23003408.521 10 0 59429 37800.00000 0 -10388795.934 1357062.491 -23263340.051 10 0 59429 38700.00000 0 -10797770.901 -1474725.285 -23071811.934 10 0 59429 39600.00000 0 -11409795.715 -4217107.405 -22432664.450 10 0 59429 40500.00000 0 -12199546.544 -6803601.353 -21358404.190 10 0 59429 41400.00000 0 -13130694.427 -9174154.351 -19869954.773 10 0 59429 42300.00000 0 -14157446.958 -11277388.534 -17996247.103 10 0 59429 43200.00000 0 -15226503.379 -13072485.087 -15773657.184 10 0 59429 44100.00000 0 -16279341.274 -14530630.767 -13245302.140 10 0 59429 45000.00000 0 -17254739.269 -15635968.194 -10460207.741 10 0 59429 45900.00000 0 -18091430.327 -16386011.882 -7472362.997 10 0 59429 46800.00000 0 -18730774.661 -16791513.957 -4339679.512 10 0 59429 47700.00000 0 -19119340.339 -16875786.232 -1122875.275 10 0 59429 48600.00000 0 -19211283.297 -16673507.898 2115696.059 10 0 59429 49500.00000 0 -18970426.671 -16229069.377 5313248.163 10 0 59429 50400.00000 0 -18371951.700 -15594522.259 8407774.255 10 0 59429 51300.00000 0 -17403628.496 -14827221.606 11339245.331 10 0 59429 52200.00000 0 -16066534.014 -13987259.851 14050771.450 10 0 59429 53100.00000 0 -14375225.902 -13134800.179 16489703.589 10 0 59429 54000.00000 0 -12357363.421 -12327421.547 18608654.925 10 0 59429 54900.00000 0 -10052789.671 -11617587.050 20366421.842 10 0 59429 55800.00000 0 -7512111.775 -11050342.223 21728786.808 10 0 59429 56700.00000 0 -4794836.542 -10661340.330 22669187.557 10 0 59429 57600.00000 0 -1967137.643 -10475278.065 23169239.520 10 0 59429 58500.00000 0 900654.138 -10504808.072 23219101.016 10 0 59429 59400.00000 0 3736734.407 -10749974.723 22817673.744 10 0 59429 60300.00000 0 6470571.851 -11198197.803 21972634.079 10 0 59429 61200.00000 0 9035604.452 -11824805.717 20700293.774 10 0 59429 62100.00000 0 11371773.494 -12594096.718 19025291.972 10 0 59429 63000.00000 0 13427790.060 -13460884.261 16980123.607 10 0 59429 63900.00000 0 15163039.464 -14372461.931 14604512.611 10 0 59429 64800.00000 0 16549044.130 -15270905.347 11944641.491 10 0 59429 65700.00000 0 17570423.803 -16095613.787 9052251.897 10 0 59429 66600.00000 0 18225312.971 -16785983.705 5983633.734 10 0 59429 67500.00000 0 18525218.511 -17284100.368 2798522.799 10 0 59429 68400.00000 0 18494324.260 -17537332.722 -441070.897 10 0 59429 69300.00000 0 18168272.843 -17500720.568 -3672080.318 10 0 59429 70200.00000 0 17592477.460 -17139051.880 -6831619.237 10 0 59429 71100.00000 0 16820036.359 -16428541.329 -9858215.490 10 0 59429 72000.00000 0 15909339.606 -15358038.204 -12693014.428 10 0 59429 72900.00000 0 14921470.695 -13929712.108 -15280928.303 10 0 59429 73800.00000 0 13917513.932 -12159187.098 -17571708.693 10 0 59429 74700.00000 0 12955882.165 -10075118.494 -19520920.851 10 0 59429 75600.00000 0 12089777.978 -7718230.101 -21090801.325 10 0 59429 76500.00000 0 11364895.379 -5139852.159 -22250982.807 10 0 59429 77400.00000 0 10817458.268 -2400021.226 -22979072.972 10 0 59429 78300.00000 0 10472677.388 434778.896 -23261077.236 10 0 59429 79200.00000 0 10343689.547 3294141.512 -23091658.352 10 0 59429 80100.00000 0 10431022.462 6106422.223 -22474228.900 10 0 59429 81000.00000 0 10722606.528 8801474.292 -21420875.816 10 0 59429 81900.00000 0 11194331.982 11313321.880 -19952119.066 10 0 59429 82800.00000 0 11811127.321 13582661.380 -18096509.540 10 0 59429 83700.00000 0 12528513.157 15559088.579 -15890074.046 10 0 59429 84600.00000 0 13294566.121 17202960.660 -13375617.912 10 0 59429 85500.00000 0 14052210.320 18486817.024 -10601898.412 10 0 59430 0.00000 0 14741740.321 19396301.285 -7622684.528 10 0 59430 900.00000 0 15303469.712 19930547.027 -4495720.257 10 0 59430 1800.00000 0 15680394.752 20102012.812 -1281612.055 10 0 59430 2700.00000 0 15820760.062 19935773.092 1957339.914 10 0 59430 3600.00000 0 15680419.748 19468296.569 5158343.563 10 0 59430 4500.00000 0 15224893.337 18745762.572 8259327.062 10 0 59430 5400.00000 0 14431029.972 17821986.795 11200138.196 10 0 59430 6300.00000 0 13288209.840 16756043.263 13923707.865 10 0 59430 7200.00000 0 11799031.231 15609682.424 16377155.294 10 0 59430 8100.00000 0 9979452.914 14444653.607 18512813.682 10 0 59430 9000.00000 0 7858384.101 13320044.216 20289156.534 10 0 59430 9900.00000 0 5476737.360 12289747.289 21671606.714 10 0 59430 10800.00000 0 2885982.096 11400163.773 22633212.567 10 0 59430 11700.00000 0 146257.019 10688236.106 23155177.834 10 0 59430 12600.00000 0 -2675881.402 10179895.913 23227234.840 10 0 59430 13500.00000 0 -5509982.322 9888991.417 22847853.269 10 0 59430 14400.00000 0 -8284392.003 9816740.122 22024279.870 10 0 59430 15300.00000 0 -10929002.240 9951730.353 20772407.595 10 0 59430 16200.00000 0 -13377941.943 10270472.233 19116475.850 10 0 59430 17100.00000 0 -15572100.092 10738475.374 17088606.816 10 0 59430 18000.00000 0 -17461374.799 11311808.332 14728186.067 10 0 59430 18900.00000 0 -19006554.511 11939074.119 12081098.920 10 0 59430 19800.00000 0 -20180752.568 12563718.268 9198836.970 10 0 59430 20700.00000 0 -20970334.861 13126571.395 6137492.222 10 0 59430 21600.00000 0 -21375301.887 13568517.934 2956658.713 10 0 59430 22500.00000 0 -21409109.484 13833177.052 -281736.372 10 0 59430 23400.00000 0 -21097936.538 13869480.995 -3514648.262 10 0 59430 24300.00000 0 -20479431.514 13634040.442 -6679152.102 10 0 59430 25200.00000 0 -19600991.959 13093195.492 -9713677.083 10 0 59430 26100.00000 0 -18517650.963 12224664.457 -12559211.998 10 0 59430 27000.00000 0 -17289661.189 11018719.972 -15160457.870 10 0 59430 27900.00000 0 -15979879.649 9478842.112 -17466904.711 10 0 59430 28800.00000 0 -14651064.474 7621820.706 -19433811.158 10 0 59430 29700.00000 0 -13363198.187 5477302.308 -21023068.226 10 0 59430 30600.00000 0 -12170950.200 3086800.705 -22203931.033 10 0 59430 31500.00000 0 -11121384.951 502212.346 -22953605.055 10 0 59430 32400.00000 0 -10252011.104 -2216101.494 -23257676.738 10 0 59430 33300.00000 0 -9589252.568 -5001586.224 -23110381.198 10 0 59430 34200.00000 0 -9147404.086 -7784025.014 -22514702.924 10 0 59430 35100.00000 0 -8928113.698 -10492225.034 -21482308.479 10 0 59430 36000.00000 0 -8920412.353 -13056748.257 -20033313.156 10 0 59430 36900.00000 0 -9101288.167 -15412574.549 -18195886.538 10 0 59430 37800.00000 0 -9436780.219 -17501587.762 -16005704.696 10 0 59430 38700.00000 0 -9883545.296 -19274782.951 -13505259.442 10 0 59430 39600.00000 0 -10390831.366 -20694104.163 -10743037.695 10 0 59430 40500.00000 0 -10902774.720 -21733837.632 -7772586.320 10 0 59430 41400.00000 0 -11360924.190 -22381503.391 -4651479.962 10 0 59430 42300.00000 0 -11706886.373 -22638209.003 -1440211.351 10 0 59430 43200.00000 0 -11884980.618 -22518451.353 1798974.963 10 0 59430 44100.00000 0 -11844791.961 -22049375.289 5003283.322 10 0 59430 45000.00000 0 -11543514.329 -21269520.424 8110579.141 10 0 59430 45900.00000 0 -10947984.923 -20227108.721 11060589.355 10 0 59430 46800.00000 0 -10036323.391 -18977944.605 13796068.147 10 0 59430 47700.00000 0 -8799105.843 -17583015.472 16263905.422 10 0 59430 48600.00000 0 -7240022.981 -16105893.005 18416156.757 10 0 59430 49500.00000 0 -5375993.066 -14610043.949 20210974.991 10 0 59430 50400.00000 0 -3236723.138 -13156162.891 21613425.379 10 0 59430 51300.00000 0 -863734.815 -11799638.601 22596168.554 10 0 59430 52200.00000 0 1691106.714 -10588259.993 23139997.933 10 0 59430 53100.00000 0 4367501.023 -9560257.875 23234220.848 10 0 59430 54000.00000 0 7098980.388 -8742764.650 22876875.591 10 0 59430 54900.00000 0 9815444.390 -8150756.758 22074779.574 10 0 59430 55800.00000 0 12445856.709 -7786524.537 20843406.884 10 0 59430 56700.00000 0 14920992.603 -7639692.071 19206596.804 10 0 59430 57600.00000 0 17176123.003 -7687786.426 17196098.033 10 0 59430 58500.00000 0 19153523.251 -7897332.523 14850956.715 10 0 59430 59400.00000 0 20804701.582 -8225427.409 12216759.544 10 0 59430 60300.00000 0 22092253.859 -8621727.251 9344746.228 10 0 59430 61200.00000 0 22991266.485 -9030762.520 6290808.655 10 0 59430 62100.00000 0 23490208.496 -9394482.609 3114396.494 10 0 59430 63000.00000 0 23591275.387 -9654921.034 -122648.811 10 0 59430 63900.00000 0 23310170.517 -9756867.119 -3357307.925 10 0 59430 64800.00000 0 22675333.999 -9650429.581 -6526620.647 10 0 59430 65700.00000 0 21726652.519 -9293382.104 -9568920.817 10 0 59430 66600.00000 0 20513705.658 -8653190.406 -12425043.868 10 0 59430 67500.00000 0 19093623.933 -7708634.045 -15039482.630 10 0 59430 68400.00000 0 17528650.050 -6450953.661 -17361468.336 10 0 59430 69300.00000 0 15883507.108 -4884474.765 -19345955.527 10 0 59430 70200.00000 0 14222685.215 -3026681.484 -20954491.913 10 0 59430 71100.00000 0 12607760.821 -907736.915 -22155956.924 10 0 59430 72000.00000 0 11094861.136 1430529.861 -22927155.375 10 0 59430 72900.00000 0 9732379.310 3936127.957 -23253255.886 10 0 59430 73800.00000 0 8559034.973 6548837.558 -23128066.673 10 0 59430 74700.00000 0 7602359.961 9202491.308 -22554144.443 10 0 59430 75600.00000 0 6877670.941 11827509.937 -21542735.262 10 0 59430 76500.00000 0 6387570.211 14353587.543 -20113549.199 10 0 59430 77400.00000 0 6121993.990 16712415.855 -18294373.561 10 0 59430 78300.00000 0 6058804.670 18840335.423 -16120532.306 10 0 59430 79200.00000 0 6164901.049 20680804.708 -13634201.950 10 0 59430 80100.00000 0 6397799.084 22186585.483 -10883596.890 10 0 59430 81000.00000 0 6707616.218 23321554.652 -7922039.416 10 0 59430 81900.00000 0 7039375.529 24062067.978 -4806931.831 10 0 59430 82800.00000 0 7335532.676 24397819.509 -1598650.077 10 0 59430 83700.00000 0 7538619.197 24332161.446 1640620.215 10 0 59430 84600.00000 0 7593890.785 23881871.430 4848083.235 10 0 59430 85500.00000 0 7451868.861 23076377.121 7961545.032 10 0 59431 0.00000 0 7070668.074 21956470.561 10920614.938 10 0 59431 900.00000 0 6418010.698 20572565.806 13667873.639 10 0 59431 1800.00000 0 5472843.609 18982572.845 16149984.545 10 0 59431 2700.00000 0 4226486.394 17249476.063 18318728.193 10 0 59431 3600.00000 0 2683263.200 15438718.407 20131939.010 10 0 59431 4500.00000 0 860588.483 13615500.328 21554326.534 10 0 59431 5400.00000 0 -1211498.219 11842106.074 22558165.191 10 0 59431 6300.00000 0 -3491331.359 10175368.880 23123839.142 10 0 59431 7200.00000 0 -5927112.533 8664380.856 23240231.306 10 0 59431 8100.00000 0 -8458837.353 7348543.296 22904948.665 10 0 59431 9000.00000 0 -11020577.443 6256038.889 22124378.813 10 0 59431 9900.00000 0 -13543023.715 5402789.941 20913575.933 10 0 59431 10800.00000 0 -15956185.891 4791946.305 19295977.585 10 0 59431 11700.00000 0 -18192136.287 4413924.532 17302956.870 10 0 59431 12600.00000 0 -20187683.404 4246996.617 14973217.950 10 0 59431 13500.00000 0 -21886863.471 4258403.298 12352045.961 10 0 59431 14400.00000 0 -23243145.316 4405944.614 9490425.571 10 0 59431 15300.00000 0 -24221255.588 4639979.890 6444045.257 10 0 59431 16200.00000 0 -24798547.332 4905751.714 3272207.015 10 0 59431 17100.00000 0 -24965854.060 5145934.378 36663.303 10 0 59431 18000.00000 0 -24727793.337 5303297.548 -3199595.095 10 0 59431 18900.00000 0 -24102507.348 5323370.869 -6373575.597 10 0 59431 19800.00000 0 -23120851.982 5156995.144 -9423519.487 10 0 59431 20700.00000 0 -21825069.449 4762650.750 -12290111.418 10 0 59431 21600.00000 0 -20267001.442 4108463.567 -14917638.371 10 0 59431 22500.00000 0 -18505919.159 3173802.724 -17255074.853 10 0 59431 23400.00000 0 -16606062.527 1950402.090 -19257073.003 10 0 59431 24300.00000 0 -14633992.833 442957.830 -20884838.505 10 0 59431 25200.00000 0 -12655870.270 -1330823.355 -22106875.920 10 0 59431 26100.00000 0 -10734770.542 -3340727.443 -22899589.742 10 0 59431 27000.00000 0 -8928152.373 -5545066.797 -23247730.632 10 0 59431 27900.00000 0 -7285580.840 -7892201.402 -23144679.328 10 0 59431 28800.00000 0 -5846800.387 -10322484.375 -22592563.785 10 0 59431 29700.00000 0 -4640236.314 -12770551.198 -21602208.257 10 0 59431 30600.00000 0 -3681985.501 -15167858.040 -20192915.994 10 0 59431 31500.00000 0 -2975336.719 -17445364.303 -18392090.203 10 0 59431 32400.00000 0 -2510838.782 -19536248.777 -16234700.751 10 0 59431 33300.00000 0 -2266912.112 -21378547.398 -13762606.782 10 0 59431 34200.00000 0 -2210976.836 -22917603.742 -11023748.052 10 0 59431 35100.00000 0 -2301049.107 -24108231.143 -8071220.161 10 0 59431 36000.00000 0 -2487737.913 -24916497.069 -4962250.995 10 0 59431 36900.00000 0 -2716558.024 -25321055.895 -1757097.690 10 0 59431 37800.00000 0 -2930461.512 -25313974.845 1482115.025 10 0 59431 38700.00000 0 -3072481.063 -24901018.779 4692593.126 10 0 59431 39600.00000 0 -3088373.594 -24101381.906 7812085.255 10 0 59431 40500.00000 0 -2929152.539 -22946877.484 10780085.213 10 0 59431 41400.00000 0 -2553401.658 -21480619.026 13539001.941 10 0 59431 42300.00000 0 -1929272.311 -19755247.765 16035274.406 10 0 59431 43200.00000 0 -1036079.159 -17830779.947 18220410.009 10 0 59431 44100.00000 0 134574.061 -15772163.328 20051926.537 10 0 59431 45000.00000 0 1578187.501 -13646644.453 21494179.393 10 0 59431 45900.00000 0 3277304.181 -11521056.073 22519058.143 10 0 59431 46800.00000 0 5201999.558 -9459137.471 23106538.748 10 0 59431 47700.00000 0 7310903.211 -7518999.193 23245080.488 10 0 59431 48600.00000 0 9552711.958 -5750837.708 22931859.480 10 0 59431 49500.00000 0 11868133.089 -4194995.210 22172833.656 10 0 59431 50400.00000 0 14192178.051 -2880445.575 20982637.167 10 0 59431 51300.00000 0 16456712.055 -1823769.687 19384305.440 10 0 59431 52200.00000 0 18593153.871 -1028662.940 17408835.304 10 0 59431 53100.00000 0 20535213.226 -485995.465 15094587.970 10 0 59431 54000.00000 0 22221551.251 -174422.190 12486545.774 10 0 59431 54900.00000 0 23598252.117 -61516.578 9635436.766 10 0 59431 55800.00000 0 24621001.568 -105379.539 6596744.111 10 0 59431 56700.00000 0 25256880.202 -256654.568 3429619.894 10 0 59431 57600.00000 0 25485695.499 -460862.711 195725.043 10 0 59431 58500.00000 0 25300796.082 -660957.130 -3041980.998 10 0 59431 59400.00000 0 24709333.839 -799987.569 -6220476.214 10 0 59431 60300.00000 0 23731962.992 -823760.312 -9277912.324 10 0 59431 61200.00000 0 22401989.321 -683379.540 -12154826.169 10 0 59431 62100.00000 0 20764006.141 -337561.241 -14795301.692 10 0 59431 63000.00000 0 18872075.269 245379.210 -17148059.322 10 0 59431 63900.00000 0 16787530.416 1085950.468 -19167451.206 10 0 59431 64800.00000 0 14576495.990 2192386.601 -20814343.179 10 0 59431 65700.00000 0 12307225.793 3560072.943 -22056866.870 10 0 59431 66600.00000 0 10047373.228 5171520.596 -22871028.116 10 0 59431 67500.00000 0 7861306.802 6996890.699 -23241161.006 10 0 59431 68400.00000 0 5807582.226 8995046.572 -23160219.847 10 0 59431 69300.00000 0 3936675.441 11115089.876 -22629904.514 10 0 59431 70200.00000 0 2289069.495 13298316.946 -21660617.719 10 0 59431 71100.00000 0 893773.199 15480514.255 -20271255.721 10 0 59431 72000.00000 0 -232668.553 17594497.884 -18488837.010 10 0 59431 72900.00000 0 -1086633.462 19572791.997 -16347976.294 10 0 59431 73800.00000 0 -1677332.222 21350335.605 -13890213.827 10 0 59431 74700.00000 0 -2026175.880 22867105.555 -11163212.798 10 0 59431 75600.00000 0 -2165628.055 24070547.226 -8219839.802 10 0 59431 76500.00000 0 -2137591.161 24917712.136 -5117145.638 10 0 59431 77400.00000 0 -1991395.075 25377013.675 -1915265.685 10 0 59431 78300.00000 0 -1781473.338 25429527.906 1323739.412 10 0 59431 79200.00000 0 -1564824.966 25069785.083 4537080.742 10 0 59431 80100.00000 0 -1398368.951 24306018.654 7662452.915 10 0 59431 81000.00000 0 -1336303.133 23159860.957 10639237.500 10 0 59431 81900.00000 0 -1427579.012 21665497.790 13409675.049 10 0 59431 82800.00000 0 -1713599.309 19868316.568 15919983.118 10 0 59431 83700.00000 0 -2226235.936 17823103.792 18121398.820 10 0 59431 84600.00000 0 -2986252.719 15591866.271 19971125.885 10 0 59431 85500.00000 0 -4002200.416 13241366.276 21433167.843 99